This demonstration page uses our WeatherBlox Daily Observations layout. Learn more.

39.29038, -76.61219

Hourly Observations for October 11, 2018

Temp ( °F °C ) Dew Point ( °F °C ) Humidity (%) Winds ( mph kmh ) Pressure ( in mb ) Visibility ( mi km ) Precip ( " mm )
12:54 am 00:54 undefined 77 25 74 23.3 90 90 undefined N/A 29.87 1011 N/A 0 0
1:54 am 01:54 undefined 77 25 73 22.8 88 88 undefined N/A 29.85 1011 N/A 0 0
2:54 am 02:54 undefined 76 24.4 73 22.8 91 91 undefined N/A 29.84 1011 N/A 0 0
3:54 am 03:54 undefined 76 24.4 73 22.8 91 91 undefined N/A 29.82 1010 N/A 0 0
4:54 am 04:54 undefined 76 24.4 73 22.8 91 91 undefined N/A 29.79 1009 N/A 0 0
5:54 am 05:54 undefined 75 23.9 74 23.3 96 96 undefined N/A 29.77 1008 N/A 0.02 0.508
6:54 am 06:54 undefined 76 24.4 75 23.9 97 97 undefined N/A 29.75 1007 N/A 0 0
7:54 am 07:54 undefined 76 24.4 75 23.9 97 97 undefined N/A 29.72 1007 N/A 0.16 4.064
8:54 am 08:54 undefined 76 24.4 75 23.9 97 97 undefined N/A 29.73 1007 N/A 0.04 1.016
9:54 am 09:54 undefined 78 25.6 74 23.3 87 87 undefined N/A 29.73 1007 N/A 0 0
10:54 am 10:54 undefined 80 26.7 75 23.9 85 85 undefined N/A 29.72 1007 N/A 0 0
11:54 am 11:54 undefined 81 27.2 74 23.3 79 79 undefined N/A 29.71 1006 N/A 0 0
12:54 pm 12:54 undefined 81 27.2 74 23.3 79 79 undefined N/A 29.69 1006 N/A 0 0
1:54 pm 13:54 undefined 82 27.8 74 23.3 77 77 undefined N/A 29.66 1004 N/A 0 0
2:54 pm 14:54 undefined 83 28.3 74 23.3 74 74 undefined N/A 29.63 1004 N/A 0 0
3:54 pm 15:54 undefined 81 27.2 75 23.9 82 82 undefined N/A 29.6 1002 N/A 0 0
4:54 pm 16:54 undefined 81 27.2 74 23.3 79 79 undefined N/A 29.61 1003 N/A 0.01 0.254
5:54 pm 17:54 undefined 79 26.1 75 23.9 88 88 undefined N/A 29.58 1002 N/A 0.03 0.762
6:54 pm 18:54 undefined 78 25.6 75 23.9 90 90 undefined N/A 29.58 1002 N/A 0.02 0.508
7:54 pm 19:54 undefined 76 24.4 74 23.3 94 94 undefined N/A 29.52 1000 N/A 0.06 1.524
8:54 pm 20:54 undefined 76 24.4 74 23.3 94 94 undefined N/A 29.57 1001 N/A 0.15 3.81
9:54 pm 21:54 undefined 72 22.2 69 20.6 91 91 undefined N/A 29.55 1001 N/A 0.17 4.318
10:54 pm 22:54 undefined 72 22.2 69 20.6 91 91 undefined N/A 29.52 1000 N/A 0.07 1.778
11:54 pm 23:54 undefined 72 22.2 69 20.6 91 91 undefined N/A 29.51 999 N/A 0.05 1.27

Powered by AerisWeather